CAPE1
1 31130U 07012P 13106.50059898 .00000531 00000-0 13009-3 0 7402
2 31130 097.8959 102.2836 0099379 259.9411 099.0562 14.53404489317810
COMPASS
1 32787U 08021E 13108.74374269 .00000996 00000-0 12210-3 0 5992
2 32787 097.7578 168.8408 0016155 136.4125 338.1964 14.85232767269148
AAUSAT2
1 32788U 08021F 13108.14778038 .00001817 00000-0 21536-3 0 5858
2 32788 097.7585 168.8412 0015664 138.0893 248.3784 14.85665646269098
DO-64
1 32789U 08021G 13108.76379323 .00002183 00000-0 24288-3 0 6148
2 32789 097.7735 172.8758 0015319 130.7367 017.5374 14.88064289269287
CO-66
1 32791U 08021J 13108.18720934 .00000766 00000-0 97100-4 0 5828
2 32791 097.7584 167.7373 0016558 139.0742 254.5691 14.84421871268973
RS-30
1 32953U 08025A 13108.49985085 .00000010 00000-0 00000 0 0 7772
2 32953 082.4976 105.3086 0019202 007.6124 352.5241 12.43033098222491
METEOR-M
1 35865U 09049A 13108.76408937 -.00000008 00000-0 15666-4 0 3773
2 35865 098.6083 162.6291 0001571 246.8504 113.2507 14.21883382186029
RS-38
1 35869U 09049E 13108.73710540 .00000070 00000-0 51087-4 0 3494
2 35869 098.6032 162.5344 0003756 245.9821 114.0968 14.22121911186040
JUGNU
1 37839U 11058B 13108.66161826 .00000391 00000-0 67593-4 0 3692
2 37839 019.9624 307.4589 0019089 347.5534 076.2653 14.12142541 78477
SRMSAT
1 37841U 11058D 13105.96004434 .00000380 00000-0 64681-4 0 3701
2 37841 019.9730 334.6506 0011813 272.7858 206.5652 14.10214500 77978
RAX-2
1 37853U 11061D 13108.08704682 .00005337 00000-0 40936-3 0 4788
2 37853 101.7181 293.8964 0237588 199.6645 309.0989 14.82910908 79535
AUBIESAT
1 37854U 11061E 13106.04872914 .00006227 00000-0 46684-3 0 4737
2 37854 101.7212 291.6561 0237760 204.3206 303.6771 14.83532309 79242
HRBE
1 37855U 11061F 13107.50222457 .00005760 00000-0 43468-3 0 4717
2 37855 101.7215 293.5891 0238600 200.5292 194.4470 14.83252178 79458
RS-39
1 38051U 11062C 13108.69974774 .00013815 00000-0 46708-3 0 3601
2 38051 051.6342 137.3245 0013235 049.6791 057.4414 15.30829414 68663
E-STAR
1 38079U 12006C 13108.64499713 .00034439 32137-5 73000-3 0 507
2 38079 069.4822 324.8175 0647396 215.4302 140.2112 14.38845795 61150
GOLIAT
1 38085U 12006J 13108.77847655 .00032588 31850-5 69392-3 0 9782
2 38085 069.4851 326.2348 0655185 216.1504 139.3525 14.37126919 61127
HORYU-2
1 38340U 12025D 13108.85167217 .00001341 00000-0 22774-3 0 4661
2 38340 098.2122 056.0144 0013816 081.6779 278.5944 14.70778513 49398
RS-40
1 38736U 12041D 13108.66505011 .00000010 00000-0 00000 0 0 2456
2 38736 082.4793 192.2266 0022998 097.4412 262.9280 12.42877321 32851
PROITERES
1 38756U 12047B 13108.99628269 .00000690 00000-0 11268-3 0 6990
2 38756 098.2560 184.9468 0011643 298.5006 061.5038 14.74149579 32678
RAIKO
1 38852U 98067CN 13107.93569444 .00064781 00000-0 57142-3 0 1992
2 38852 051.6409 037.5319 0015253 137.9511 222.2659 15.67939828 30384
FITSAT 1
1 38853U 98067CP 13107.85867823 .00094773 00000-0 68212-3 0 2003
2 38853 051.6426 035.5381 0012650 149.8273 210.3457 15.72709848 30451
TechEdSat
1 38854U 98067CQ 13108.73343754 .00416188 78030-4 11847-2 0 2432
2 38854 051.6330 024.0001 0011318 167.8053 192.3592 15.92638908 30688
F 1
1 38855U 98067CR 13108.62294588 .00326261 49841-4 11231-2 0 2326
2 38855 051.6360 025.5120 0010251 158.4085 201.7432 15.89000935 30559
WeWish
1 38856U 98067CS 13069.98095549 .16701328 12537-4 10063-2 0 2487
2 38856 051.6166 215.0521 0008325 316.0438 044.8765 16.41348316 24586
